Preview of NWS' New Version of Forecast
This preview is not operational and should not be used for support decisions.

Regional Weather Roundup (RWR)

Issued by National Weather Service (NWS)

                            
000
ASUS46 KSEW 230310
RWRWA 

WASHINGTON REGIONAL WEATHER ROUNDUP
NATIONAL WEATHER SERVICE SEATTLE WA
800 PM PDT THU AUG 22 2019

NOTE:"FAIR" INDICATES FEW OR NO CLOUDS BELOW 12,000 FEET WITH NO 
SIGNIFICANT WEATHER AND/OR OBSTRUCTIONS TO VISIBILITY.

WAZ507-509-555>559-230400-
SEATTLE, TACOMA, EVERETT, AND VICINITY
  
CITY           SKY/WX    TMP DP  RH WIND       PRES   REMARKS
EVERETT        CLEAR     67  50  54 W3        30.06S                  
BOEING FIELD   CLEAR     68  50  52 SW5       30.04S                  
RENTON         CLEAR     68  54  60 CALM      30.03F                  
SEATAC AIRPORT PTCLDY    67  50  54 W3        30.05F                  
JBLM-MCCHORD   CLEAR     66  54  63 CALM      30.04F                  
PUYALLUP       FAIR      63  59  88 CALM      30.05F                  
BREMERTON      CLEAR     66  56  70 W3        30.05F                  
JBLM-FT LEWIS  NOT AVBL                                               
TACOMA NARROWS CLEAR     65  53  65 CALM      30.04F                  
$$
 
WAZ001-503-506-510-514-515-230400-
NORTH INTERIOR
  
CITY           SKY/WX    TMP DP  RH WIND       PRES   REMARKS
BELLINGHAM     CLEAR     63  53  70 CALM      30.03F                  
FRIDAY HARBOR  CLEAR     60  50  69 CALM      30.04F                  
EASTSOUND      CLEAR     64  54  68 CALM      30.03S                  
PORT ANGELES   PTCLDY    58  50  75 W5        30.06S                  
EDIZ HOOK      FAIR      56  52  86 W9        30.05S                  
PORT TOWNSEND  FAIR      64  52  63 CALM      30.03S                  
NAS WHIDBEY    PTCLDY    63  50  62 NW3       30.07F                  
ARLINGTON      CLEAR     67  53  61 NW3       30.04S                  
BURLINGTON     CLEAR     64  52  63 CALM      30.04S                  
$$
 
WAZ020-022-039-040-504-511-512-230400-
SOUTHWEST INTERIOR
  
CITY           SKY/WX    TMP DP  RH WIND       PRES   REMARKS
SHELTON        CLOUDY    69  55  60 E3        30.02S                  
OLYMPIA        CLEAR     67  54  63 NE3       30.04F                  
CHEHALIS       FAIR      66  57  72 CALM      30.04S                  
KELSO          CLEAR     68  55  63 CALM      30.03S                  
VANCOUVER      CLEAR     71  52  50 VRB3      30.01S                  
SCAPPOOSE, OR  CLEAR     69  53  56 NW3       30.01R                  
PORTLAND, OR   PTCLDY    72  53  51 N3        30.01S                  
$$
 
WAZ021-516-517-230400-
WASHINGTON COAST
  
CITY           SKY/WX    TMP DP  RH WIND       PRES   REMARKS
FORKS          PTCLDY    57  54  89 CALM      30.06F                  
HOQUIAM        PTCLDY    61  54  77 NW8       30.07S                  
ASTORIA, OR    PTCLDY    62  53  72 NW12      30.05F                  
$$
 
WAZ019-023-024-040-567>569-230400-
CASCADE MOUNTAINS AND COLUMBIA GORGE
  
CITY           SKY/WX    TMP DP  RH WIND       PRES   REMARKS
STAMPEDE PASS  CLOUDY    51  48  89 VRB3      30.10S                  
TROUTDALE, OR  CLEAR     69  54  58 CALM      30.01S                  
HOOD RIVER, OR CLEAR     64  52  63 W5        29.98R                  
THE DALLES, OR CLEAR     70  52  52 NW18      29.94R                  
$$

WAZ026-027-041>044-520-521-230400-
EAST SLOPES
  
CITY           SKY/WX    TMP DP  RH WIND       PRES   REMARKS
OMAK           CLEAR     72  44  36 N9        29.90R                  
WENATCHEE      CLEAR     77  46  33 NW15      29.90R                  
ELLENSBURG     CLEAR     68  46  45 NW20G26   29.95R                  
YAKIMA         CLEAR     75  49  39 CALM      29.92R                  
SUNNYSIDE ARPT CLEAR     70  60  71 E6        29.91R                  
YAKIMA TC      FAIR      73  39  28 E9        29.91R                  
$$

WAZ028-034-035-230400-
COLUMBIA BASIN
  
CITY           SKY/WX    TMP DP  RH WIND       PRES   REMARKS
EPHRATA        CLEAR     72  47  40 SW7       29.91R                  
MOSES LAKE     CLEAR     80  45  28 S8        29.91S                  
PASCO          CLEAR     81  50  33 SE8       29.90R                  
RICHLAND ARPT  CLEAR     80  52  38 CALM      29.90                   
HERMISTON, OR  CLEAR     74  50  42 CALM      29.91R                  
$$

WAZ036>038-230400-
NORTHEAST WASHINGTON
  
CITY           SKY/WX    TMP DP  RH WIND       PRES   REMARKS
SPOKANE GEIGER PTCLDY    74  50  42 S5        29.96R                  
SPOKANE FELTS  CLEAR     72  53  51 CALM      29.94R                  
FAIRCHILD AFB  CLEAR     71  48  43 SW7       29.96R                  
COEURDALENE,ID CLEAR     69  56  62 S3        29.98R                  
DEER PARK      CLEAR     69  54  58 SE5       29.95R                  
$$

WAZ029>033-230400-
SOUTHEAST WASHINGTON
  
CITY           SKY/WX    TMP DP  RH WIND       PRES   REMARKS
PULLMAN        CLEAR     68  51  54 NW5       29.99R                  
LEWISTON, ID   CLEAR     77  50  38 W3        29.92R                  
WALLA WALLA    CLEAR     76  39  26 SW3       29.93R                  
PENDLETON, OR  CLEAR     71  46  40 W6        29.94S                  
$$